Probability
0 0 0 0 0 0 0 0 0 0 0 0 0 0 0 0 0 0 0 0 0 0 0 0 0 0 0 0 0 0 0 0 0 0 0 0 0 0
0 0 0 0 0 0 0 0 0 0 0 0 0 0 0 0 0 0 0 0 0 0 0 0 0 0 0 0 0 0 0 0 0 0 0 0 0 0
0 0 0 0 0 0 0 0 0 0 0 0 0 0 0 0 0 0 0 0 0 0 0 0 0 0 0 0 0 0 0 0 0 0 0 0 0 0
0 0 0 0 0 0 0 0 0 0 0 0 0 0 0 0 0 0 0 0 0 0 0 0 0 0 0 0 0 0 0 0 0 0 0 0 0 0
0 0 0 0 0 0 0 0 0 0 0 0 0 0 0 0 0 0 0 0 0 0 0 0 0 0 0 0 0 0 0 0 0 0 0 0 0 0
0 0 0 0 0 0 0 0 0 0 0 0 0 0 0 0 0 0 0 0 0 0 0 0 0 0 0 0 0 0 0 0 0 0 0 0 0 0
0 0 0 0 0 0 0 0 0 0 0 0 0 0 0 0 0 0 0 0 0 0 0 0 0 0 0 0 0 0 0 0 0 0 0 0 0 0
0 0 0 0 0 0 0 0 0 0 0 0 0 0 0 0 0 0 0 0 0 0 0 0 0 0 0 0 0 0 0 0 0 0 0 0 0 0
0 0 0 0 0 0 0 0 0 0 0 0 0 0 0 0 0 0 0 0 0 0 0 0 0 0 0 0 0 0 0 0 0 0 0 0 0 0
0 0 0 0 0 0 0 0 0 0 0 0 0 0 0 0 0 0 0 0 0 0 0 0 0 0 0 0 0 0 0 0 0 0 0 0 0 0
0 0 0 0 0 0 0 0 0 0 0 0 0 0 0 0 0 0 0 0 0 0 0 0 0 0 0 0 0 0 0 0 0 0 0 0 0 0
0 0 0 0 0 0 0 0 0 0 0 0 0 0 0 0 0 0 0 0 0 0 0 0 0 0 0 0 0 0 0 0 0 0 0 0 0 0
0 0 0 0 0 0 0 0 0 0 0 0 0 0 0 0 0 0 0 0 0 0 0 0 0 0 0 0 0 0 0 0 0 0 0 0 0 0
0 0 0 0 0 0 0 0 0 0 0 0 0 0 0 0 0 0 0 0 0 0 0 0 0 0 0 0 0 0 0 0 0 0 0 0 0 0
0 0 0 0 0 0 0 0 0 0 0 0 0 0 0 0 0 0 0 0 0 0 0 0 0 0 0 0 0 0 0 0 0 0 0 0 0 0
0 0 0 0 0 0 0 0 0 0 0 0 0 0 0 0 0 0 0 0 0 0 0 0 0 0 0 0 0 0 0 0 0 0 0 0 0 0
0 0 0 0 0 0 0 0 0 0 0 0 0 0 0 0 0 0 0 0 0 0 0 0 0 0 0 0 0 0 0 0 0 0 0 0 0 0
0 0 0 0 0 0 0 0 0 0 0 0 0 0 0 0 0 0 0 0 0 0 0 0 0 0 0 0 0 0 0 0 0 0 0 0 0 0
0 0 0 0 0 0 0 0 0 0 0 0 0 0 0 0 0 0 0 0 0 0 0 0 0 0 0 0 0 0 0 0 0 0 0 0 0 0
0 0 0 0 0 0 0 0 0 0 0 0 0 0 0 0 0 0 0 0 0 0 0 0 0 0 0 0 0 0 0 0 0 0 0 0 0 0
0 0 0 0 0 0 0 0 0 0 0 0 0 0 0 0 0 0 0 0 0 0 0 0 0 0 0 0 0 0 0 0 0 0 0 0 0 0
0 0 0 0 0 0 0 0 0 0 0 0 0 0 0 0 0 0 0 0 0 0 0 0 0 0 0 0 0 0 0 0 0 0 0 0 0 0
0 0 0 0 0 0 0 0 0 0 0 0 0 0 0 0 0 0 0 0 0 0 0 0 0 0 0 0 0 0 0 0 0 0 0 0 0 0
Height
5707 5701 5696 5690 5684 5677 5672 5666 5662 5658 5654 5643 5633 5623 5614 5608 5601 5595 5590 5586 5583 5581 5579 5579 5579 5581 5582 5585 5588 5593 5597 5603 5608 5615 5621 5628 5636 5643
5691 5686 5680 5674 5668 5661 5654 5648 5641 5636 5633 5625 5613 5603 5594 5587 5579 5574 5569 5565 5561 5559 5557 5557 5558 5559 5561 5564 5568 5572 5577 5582 5589 5596 5603 5611 5619 5626
5676 5670 5664 5658 5651 5644 5638 5630 5623 5615 5610 5605 5593 5583 5575 5567 5560 5555 5550 5547 5544 5542 5540 5539 5540 5541 5543 5546 5549 5553 5558 5563 5569 5577 5584 5592 5600 5610
5661 5655 5648 5642 5635 5628 5621 5613 5605 5597 5589 5584 5575 5565 5557 5550 5545 5541 5537 5533 5530 5528 5526 5525 5525 5526 5527 5529 5532 5536 5540 5546 5552 5558 5566 5575 5583 5591
5646 5640 5633 5626 5620 5612 5605 5597 5588 5579 5571 5565 5559 5551 5544 5538 5534 5530 5526 5522 5519 5517 5515 5514 5514 5514 5515 5516 5519 5522 5526 5531 5536 5542 5548 5556 5565 5574
5631 5625 5618 5611 5604 5597 5589 5581 5573 5565 5557 5551 5545 5539 5534 5529 5525 5521 5518 5514 5511 5508 5506 5505 5504 5504 5505 5506 5508 5510 5513 5517 5522 5527 5533 5540 5548 5557
5616 5610 5603 5596 5589 5582 5575 5567 5560 5554 5547 5541 5536 5531 5527 5522 5518 5515 5511 5508 5505 5501 5500 5498 5497 5497 5496 5497 5498 5500 5503 5506 5510 5514 5520 5526 5533 5542
5603 5596 5589 5582 5575 5568 5562 5556 5550 5545 5540 5535 5530 5526 5522 5518 5514 5510 5506 5503 5500 5497 5494 5492 5490 5490 5489 5490 5490 5492 5494 5496 5499 5503 5508 5513 5520 5527
5590 5583 5576 5570 5564 5559 5553 5548 5543 5539 5535 5531 5527 5523 5519 5515 5511 5507 5503 5499 5496 5493 5490 5487 5485 5484 5484 5483 5484 5484 5486 5488 5490 5494 5498 5503 5508 5515
5578 5572 5566 5560 5556 5551 5547 5543 5539 5535 5532 5528 5524 5520 5516 5513 5509 5505 5501 5496 5492 5489 5486 5483 5481 5480 5479 5478 5478 5478 5479 5481 5483 5486 5489 5494 5499 5504
5567 5562 5558 5553 5549 5546 5542 5539 5536 5533 5530 5526 5523 5519 5515 5511 5507 5503 5498 5494 5490 5486 5483 5481 5478 5476 5475 5474 5473 5473 5474 5475 5477 5479 5482 5486 5491 5496
5559 5555 5552 5548 5545 5542 5539 5537 5535 5532 5529 5526 5522 5519 5515 5511 5506 5502 5497 5493 5489 5485 5482 5479 5476 5474 5472 5471 5470 5469 5469 5470 5471 5474 5477 5480 5485 5490
5553 5550 5547 5545 5542 5540 5538 5536 5534 5531 5529 5526 5523 5519 5515 5511 5506 5502 5497 5493 5489 5485 5482 5478 5475 5472 5470 5468 5467 5466 5465 5466 5467 5470 5473 5476 5481 5486
5549 5547 5545 5543 5541 5539 5538 5536 5534 5532 5529 5526 5523 5520 5516 5512 5507 5503 5499 5494 5490 5486 5482 5478 5475 5472 5469 5467 5465 5464 5463 5463 5464 5467 5470 5474 5479 5484
5546 5544 5543 5542 5540 5539 5538 5536 5534 5532 5530 5527 5525 5521 5518 5514 5509 5505 5501 5497 5492 5488 5484 5480 5477 5473 5470 5468 5465 5464 5463 5462 5463 5465 5469 5473 5478 5484
5544 5543 5543 5542 5541 5539 5538 5537 5535 5533 5531 5529 5526 5523 5520 5516 5512 5508 5504 5500 5496 5491 5487 5483 5479 5476 5472 5469 5467 5465 5464 5464 5464 5466 5470 5474 5479 5485
5544 5543 5543 5542 5541 5540 5539 5538 5537 5535 5533 5531 5529 5526 5523 5519 5515 5511 5507 5503 5499 5495 5491 5487 5483 5479 5476 5473 5471 5469 5467 5467 5467 5469 5473 5477 5482 5488
5544 5544 5544 5543 5542 5541 5540 5540 5538 5537 5536 5534 5532 5529 5526 5522 5519 5515 5511 5507 5504 5500 5496 5492 5488 5484 5482 5479 5477 5474 5473 5472 5472 5474 5478 5482 5487 5492
5545 5545 5545 5544 5543 5543 5542 5541 5541 5540 5538 5537 5534 5532 5529 5526 5523 5519 5516 5512 5509 5505 5501 5498 5494 5490 5488 5486 5484 5481 5480 5479 5479 5481 5484 5488 5492 5497
5547 5547 5546 5546 5545 5545 5544 5544 5544 5543 5541 5540 5538 5535 5532 5529 5526 5524 5520 5517 5514 5511 5507 5504 5501 5497 5495 5493 5491 5489 5487 5487 5487 5489 5491 5494 5498 5503
5549 5549 5548 5548 5548 5547 5547 5547 5547 5546 5545 5543 5542 5539 5536 5534 5531 5528 5525 5522 5519 5517 5514 5511 5508 5505 5502 5500 5499 5498 5496 5495 5495 5497 5498 5501 5505 5509
5551 5551 5551 5551 5550 5551 5551 5551 5550 5550 5549 5547 5545 5543 5541 5538 5535 5533 5530 5527 5525 5522 5520 5517 5515 5512 5510 5509 5508 5506 5505 5504 5504 5505 5506 5509 5512 5515
5555 5554 5554 5554 5554 5554 5554 5554 5554 5554 5553 5551 5549 5548 5545 5543 5540 5538 5535 5533 5531 5528 5526 5524 5522 5520 5518 5517 5516 5515 5514 5513 5513 5514 5515 5516 5518 5521
Wind_Speed
61 62 61 61 61 62 63 64 65 65 65 68 70 73 75 75 75 74 73 71 69 68 66 65 63 62 61 61 61 61 61 61 61 61 60 59 58 57
61 61 61 61 61 61 62 64 66 67 67 69 72 74 74 73 71 69 65 62 60 59 58 57 57 57 57 57 58 59 61 62 62 62 62 61 60 59
61 60 59 60 60 60 62 64 66 68 69 69 71 71 69 66 62 58 54 51 49 47 47 47 48 49 51 52 54 56 58 59 61 62 63 63 62 61
60 59 59 59 59 60 62 64 66 69 69 67 64 61 57 52 48 45 43 41 39 39 39 40 41 42 43 45 47 50 53 55 57 60 62 63 62 62
59 58 58 57 58 60 62 64 65 65 62 59 52 48 44 41 38 36 34 34 33 33 33 33 34 34 36 37 39 42 45 48 51 54 57 60 62 62
57 57 57 58 59 60 60 60 59 56 52 47 41 37 34 32 30 28 28 28 27 26 26 26 27 27 29 30 32 35 38 41 44 47 50 54 58 60
55 55 56 57 57 57 56 53 50 45 41 36 32 28 26 25 25 24 22 22 22 22 21 21 22 23 25 26 27 30 32 35 38 41 44 48 51 55
53 53 54 54 53 51 48 44 39 34 28 26 23 21 20 20 19 19 18 18 18 19 19 19 19 19 21 22 24 26 28 30 33 36 38 42 46 50
50 50 49 48 45 41 37 33 28 24 21 19 17 16 16 16 16 17 17 17 17 17 17 16 16 16 17 18 20 22 24 26 29 31 34 36 39 43
46 44 41 38 35 30 27 23 20 18 16 14 14 13 14 14 15 15 16 16 16 15 14 13 13 14 14 15 16 18 20 21 23 26 29 32 35 38
39 36 33 29 26 22 18 16 14 13 12 12 11 12 12 13 15 15 16 15 14 13 12 12 11 12 12 13 14 16 18 19 21 22 24 27 30 33
33 29 25 22 18 14 11 10 10 9 9 10 11 12 13 14 15 15 15 14 13 12 11 10 10 9 10 10 10 12 14 16 18 19 21 23 26 29
25 22 18 14 10 8 7 7 7 7 7 9 11 12 14 15 16 15 15 14 13 12 11 11 10 9 8 8 8 8 11 13 15 16 18 21 22 25
17 14 10 7 5 5 5 5 5 6 8 9 11 12 14 16 17 16 15 15 15 14 13 13 11 9 8 6 5 4 5 8 11 13 16 19 21 23
10 7 5 3 3 4 4 5 6 7 8 10 11 13 15 17 18 18 17 17 16 15 15 15 13 12 9 7 6 3 1 4 7 11 14 17 20 22
4 2 1 2 3 4 5 6 7 8 9 11 12 14 15 17 18 18 18 18 18 18 17 16 15 14 12 10 8 6 5 4 7 10 14 18 20 23
1 2 3 4 4 5 6 6 7 8 9 11 12 14 16 17 17 17 18 18 19 19 19 18 17 16 15 13 11 10 10 9 9 12 15 18 21 23
4 5 5 5 6 6 6 7 8 9 10 11 12 14 15 16 17 17 18 18 19 19 19 19 18 18 17 15 14 14 14 14 14 15 17 18 20 23
7 7 7 7 7 8 8 9 9 10 11 12 13 14 15 16 17 17 18 18 19 19 20 20 20 20 19 16 15 16 17 17 17 17 18 19 20 21
9 8 8 8 9 10 10 10 10 11 12 13 14 15 16 16 17 17 17 18 18 19 20 21 21 21 20 19 17 18 20 21 21 20 19 19 19 20
10 9 9 10 11 11 12 12 12 12 13 14 15 16 16 16 17 17 17 18 18 19 19 20 20 21 22 21 19 19 20 22 22 22 22 21 20 19
11 11 11 11 12 13 13 13 13 13 14 15 15 16 17 17 17 18 18 18 18 19 19 20 19 20 21 21 20 19 19 20 21 22 22 22 22 20
12 12 12 13 13 14 13 13 13 14 14 15 16 17 18 18 19 19 19 19 19 19 20 20 20 20 21 21 20 20 20 21 21 21 21 22 21 20
Wind_Direction
294 295 294 294 295 295 293 291 290 289 288 288 287 287 288 287 286 285 284 282 280 277 274 271 267 264 261 257 254 251 249 247 245 244 242 241 240 239
298 298 297 296 296 295 293 292 291 291 290 289 289 289 288 288 288 286 285 282 279 276 272 269 265 261 258 255 252 249 246 245 243 241 240 239 239 238
299 299 298 298 296 294 293 293 292 292 292 292 291 291 291 291 290 288 286 283 280 276 272 268 264 261 257 254 251 248 246 244 242 240 239 238 237 237
300 299 298 297 296 294 294 294 294 294 294 294 295 295 294 292 290 289 287 285 281 277 273 269 265 262 258 254 251 248 246 244 242 240 238 237 236 235
301 300 298 297 296 295 295 296 296 297 298 299 299 297 295 293 292 291 289 287 283 279 275 271 267 263 259 255 251 248 246 244 242 240 238 236 234 233
300 298 297 297 297 297 297 298 298 300 301 302 301 299 297 295 294 293 292 290 288 284 280 274 269 265 261 256 252 249 246 243 241 240 238 236 234 232
299 298 298 298 298 298 299 299 301 303 304 304 303 302 300 299 299 299 297 294 292 290 286 279 273 267 262 257 253 250 247 244 242 239 237 235 233 231
299 299 299 299 300 300 301 303 304 306 306 307 307 307 307 307 308 308 306 302 298 295 292 286 279 272 266 261 256 252 247 244 241 239 237 235 232 229
299 300 300 300 301 302 304 306 308 309 311 312 313 314 315 316 317 316 315 311 306 302 299 291 283 276 270 264 259 254 250 246 242 238 236 233 231 229
300 300 301 302 303 305 306 307 309 312 316 319 321 322 323 324 325 326 324 322 318 314 309 299 290 283 276 269 262 256 250 246 242 238 234 231 229 227
300 301 303 304 306 307 307 308 312 317 322 328 332 334 336 338 337 336 334 333 331 326 321 316 306 296 287 278 269 261 253 247 241 236 232 229 226 223
302 304 306 307 308 309 311 315 322 329 336 342 347 349 349 349 349 348 346 346 344 341 335 329 322 312 300 288 275 264 254 244 238 233 229 224 221 218
303 306 308 310 313 318 323 330 339 348 354 358 359 0 1 3 3 1 2 3 3 1 358 352 344 333 320 306 286 271 256 242 234 228 223 217 213 210
303 306 310 315 326 336 343 353 4 10 12 12 14 15 14 13 13 14 16 17 16 15 14 11 7 0 354 350 338 301 260 239 227 218 210 205 201 197
302 306 314 331 357 12 23 28 29 28 27 27 27 25 22 21 22 24 25 24 25 26 26 25 23 20 18 17 14 15 295 211 200 196 193 191 189 188
303 317 9 45 45 45 47 44 40 40 40 37 33 30 27 27 28 30 31 31 33 34 31 28 28 30 33 37 42 53 80 129 162 169 173 176 177 178
43 83 82 74 63 58 55 52 51 52 49 44 40 35 33 32 32 32 34 36 36 37 37 36 38 41 45 49 55 66 81 98 128 148 156 164 168 171
99 95 87 77 71 64 64 64 63 61 54 48 43 38 34 34 35 36 36 38 39 40 41 42 44 48 51 54 65 78 85 95 111 129 142 151 159 165
100 93 86 80 74 73 75 75 72 64 56 50 44 38 36 37 39 40 42 43 43 45 47 47 48 52 56 60 70 81 90 97 106 116 130 142 150 157
96 88 84 82 80 81 83 82 75 66 59 52 45 40 40 40 41 43 45 47 48 50 52 53 53 56 60 66 73 83 92 97 103 110 119 129 140 148
91 85 84 85 85 87 88 83 75 67 60 51 45 43 43 44 45 46 48 50 52 54 55 56 57 61 65 69 75 82 91 97 101 106 112 120 129 137
87 85 86 89 91 91 90 84 75 67 60 52 47 46 47 48 49 49 51 53 54 56 58 60 63 66 69 72 77 82 88 94 100 106 112 117 123 129
84 85 87 91 93 92 90 85 76 69 61 55 52 51 51 52 53 54 54 55 57 59 61 62 65 70 74 77 80 84 89 94 100 104 111 117 121 128